ラッセル第4彗星

94P/Russell 4 (2023)

English version
Home page
Updated on May 28, 2023

---------------------------------------------------------------------

・ プロフィール

・ 写真集

・ 軌道要素

Epoch 2023 Feb. 25.0 TT = JDT 2460000.5
T 2023 May 21.08355 TT                                  Rudenko
q   2.2270636            (2000.0)            P               Q
n   0.14991176     Peri.   92.41906     -0.95219936     -0.28800728
a   3.5095027      Node    70.85615     +0.21944090     -0.87678716
e   0.3654190      Incl.    6.18764     +0.21251369     -0.38509231
P   6.57
>From 1960 observations 1984 Mar. 4-2023 Mar. 19, mean residual 0".6.
     Nongravitational parameters A1 = -0.00, A2 = +0.0017.

・ 星図

・ 光度変化

        H = 14.5  G = 0.15             [    ,-210]  (              〜2022年10月23日)
        m1 = 3.0 + 5 logΔ + 35 log r  [-210, 155]  (2022年10月23日〜2023年10月23日)
        H = 14.5  G = 0.15             [ 155,    ]  (2023年10月23日〜              )

---------------------------------------------------------------------

軌道要素はM.P.E.C. 2023-F81に掲載されたものです。
星図はステラナビゲータ Ver.10 (アストロアーツ) で作成したものです。
光度グラフはComet for Windowsで作成したものです。

---------------------------------------------------------------------

Copyright(C) Seiichi Yoshida (comet@aerith.net). All rights reserved.